Weather History for Liberia, Costa Rica

Change the Weather History Date:

Sunday, January 13, 2013

  Actual Average Record
Temperature  
Mean Temperature 82 °F -  
Max Temperature 94 °F 89 °F 94 °F (2013)
Min Temperature 69 °F 73 °F 62 °F (2008)
Cooling Degree Days 16    
Growing Degree Days 32 (Base 50)    
Moisture  
Dew Point 61 °F    
Average Humidity 43    
Maximum Humidity 73    
Minimum Humidity 21    
Precipitation  
Precipitation 0.00 in - - ()
Sea Level Pressure  
Sea Level Pressure 29.81 in    
Wind  
Wind Speed 10 mph ()    
Max Wind Speed 18 mph    
Max Gust Speed -    
Visibility 9.4 miles    
Events      
Averages and records for this station are not official NWS values.
T = Trace of Precipitation, MM = Missing Value Source: Averaged Metar Reports

Daily Weather History Graph

Daily Weather History Graph

Search for Another Location

Airport:

Trip Planner

Search our weather history database for the weather conditions in past years. The results will help you decide how hot, cold, wet, or windy it might be!

Date:

Astronomy

Jan. 13, 2013 Rise Set
Actual Time 6:04 AM CST 5:38 PM CST
Civil Twilight 5:41 AM CST 6:00 PM CST
Nautical Twilight 5:15 AM CST 6:26 PM CST
Astronomical Twilight 4:49 AM CST 6:52 PM CST
Moon 7:31 AM CST (1/13) 7:41 PM CST (1/13)
Length of Visible Light 12h 19m
Length of Day
11h 33m
Waxing Crescent, 5% of the Moon is Illuminated
Jan 13
Waxing Crescent
Jan 18
First Quarter
Jan 26
Full
Feb 3
Last Quarter
Feb 10
New

Hourly Weather History & Observations

Time (CST) Temp. Heat Index Dew Point Humidity Pressure Visibility Wind Dir Wind Speed Gust Speed Precip Events Conditions
6:00 AM 71 °F - 63 °F 70% 29.83 in 12 mi SE 6.9 mph - -   Clear
6:00 AM 71.6 °F - 62.6 °F 73% 29.82 in - SE 6.9 mph - N/A   Clear
7:00 AM 75.2 °F - 62.6 °F 65% 29.84 in - SE 5.8 mph - N/A   Clear
8:00 AM 82.4 °F 83.4 °F 62.6 °F 51% 29.84 in - East 9.2 mph - N/A   Clear
9:00 AM 87 °F - 61 °F 31% 29.86 in 12 mi East 12.7 mph - -   Clear
9:00 AM 87.8 °F 87.6 °F 60.8 °F 40% 29.84 in - East 12.7 mph - N/A   Clear
10:00 AM 89.6 °F 88.9 °F 59.0 °F 36% 29.83 in - ENE 16.1 mph - N/A   Clear
11:00 AM 91.4 °F 90.7 °F 59.0 °F 34% 29.82 in - East 12.7 mph - N/A   Clear
12:00 PM 93 °F - 57 °F 21% 29.81 in 12 mi ENE 15.0 mph - -   Clear
12:00 PM 93.2 °F 91.9 °F 57.2 °F 30% 29.80 in - ENE 15.0 mph - N/A   Clear
1:00 PM 93.2 °F 92.6 °F 59.0 °F 32% 29.78 in 6.2 mi ENE 13.8 mph - N/A   Partly Cloudy
2:00 PM 93.2 °F 92.6 °F 59.0 °F 32% 29.77 in 6.2 mi ENE 15.0 mph - N/A   Partly Cloudy
3:00 PM 93 °F - 59 °F 22% 29.77 in 12 mi ENE 13.8 mph - -   Scattered Clouds
3:00 PM 93.2 °F 92.6 °F 59.0 °F 32% 29.75 in 6.2 mi ENE 13.8 mph - N/A   Partly Cloudy
4:00 PM 91.4 °F 91.4 °F 60.8 °F 36% 29.76 in 6.2 mi ENE 12.7 mph - N/A   Partly Cloudy
5:00 PM 86.0 °F 86.6 °F 62.6 °F 45% 29.78 in - ENE 18.4 mph - N/A   Clear
6:00 PM 83 °F - 65 °F 45% 29.80 in 12 mi ENE 15.0 mph - -   Clear
6:00 PM 82.4 °F 83.9 °F 64.4 °F 54% 29.79 in - ENE 15.0 mph - N/A   Clear
7:00 PM 80.6 °F 82.3 °F 64.4 °F 58% 29.80 in - East 13.8 mph - N/A   Clear
8:00 PM 78.8 °F - 64.4 °F 61% 29.83 in - ENE 17.3 mph - N/A   Clear